[[{"header":{"parameterUnit":"m.s-1","parameterCategory":1,"la1":30.2991,"la2":30.254,"lo1":-89.0895,"lo2":-89.0444,"dy":0.0017,"dx":0.0017,"nx":28,"ny":28,"refTime":"2025-01-27T09:00:00:Z","depth":0,"parameterNumber":2,"parameterNumberName":"U-component_of_WINDS"},"data":[0,0,0,0,0,0,0,0,0,0,0,0,0,0,0,0,0,0,0,0,0,0,0,0,0,0,0,0,0,0,0,0,0,0,0,0,0,0,0,0,0,0,0,0,0,0,0,0,0,0,0,0,0,0,0,0,0,0,-1.3204,-1.3205,0,-1.3228,-1.3228,-1.3229,-1.3176,-1.3175,-1.3173,-1.3172,-1.3198,-1.32,-1.3202,0,0,0,0,0,0,0,0,0,0,0,0,0,-1.3115,-1.3117,-1.3204,-1.3205,-1.3205,-1.3228,-1.3228,-1.3229,-1.3177,-1.3175,-1.3173,-1.3171,-1.3197,-1.32,-1.3202,0,0,0,0,0,0,0,0,0,0,0,0,0,-1.3148,-1.3117,-1.3204,-1.3182,-1.318,-1.3228,-1.3229,-1.3229,-1.3177,-1.3175,-1.3172,-1.317,-1.3196,-1.3199,-1.3203,-1.3274,0,0,-1.3213,-1.3215,0,0,0,0,0,0,0,0,-1.3146,-1.3151,-1.3185,-1.3183,-1.3182,-1.3197,-1.3206,-1.3244,-1.3178,-1.3178,-1.3171,-1.3169,-1.32,-1.3202,-1.3213,-1.3276,-1.3277,-1.3213,-1.3215,-1.3217,-1.3218,0,0,0,0,0,0,0,-1.3144,-1.315,-1.3214,-1.3185,-1.3183,-1.3171,-1.3173,-1.3213,-1.3203,-1.3178,-1.3174,-1.3178,-1.3198,-1.3209,-1.3213,-1.3277,-1.3213,-1.3216,-1.3218,-1.322,-1.34,-1.3403,0,0,0,0,0,0,-1.3144,-1.3148,-1.3213,-1.3215,-1.3157,-1.3174,-1.3177,-1.3194,-1.3202,-1.3201,-1.318,-1.3175,-1.3205,-1.3209,-1.3214,-1.3299,-1.3217,-1.322,-1.3222,-1.3398,-1.3401,-1.3404,0,0,0,0,0,0,-1.3142,-1.315,-1.3212,-1.318,-1.3187,-1.3179,-1.3199,-1.3196,-1.3207,-1.3204,-1.3202,-1.3193,-1.3203,-1.3209,-1.326,-1.3299,-1.3222,-1.3225,-1.3394,-1.3399,-1.3402,-1.347,0,0,0,0,0,0,-1.314,-1.315,-1.3177,-1.3181,-1.3189,-1.3258,-1.3202,-1.3199,-1.3213,-1.3207,-1.3216,-1.3215,-1.3201,-1.3255,-1.3263,-1.3302,-1.3227,-1.3391,-1.3396,-1.3401,-1.3464,-1.3476,-1.3486,0,0,0,0,0,-1.3137,-1.3196,-1.3179,-1.3187,-1.3223,-1.326,-1.3265,-1.3248,-1.3217,-1.3244,-1.3241,-1.3214,-1.3293,-1.326,-1.3269,-1.331,-1.3388,-1.3395,-1.3401,-1.3459,-1.3473,-1.3485,0,0,0,0,0,0,-1.3197,-1.3196,-1.3177,-1.3239,-1.325,-1.3251,-1.3286,-1.3263,-1.3284,-1.3278,-1.3256,-1.3259,-1.3314,-1.3317,-1.3281,-1.338,-1.3335,-1.3344,-1.3377,-1.339,-1.3401,-1.34,-1.323,0,0,0,0,0,-1.3217,-1.3248,-1.3245,-1.3299,-1.3306,-1.3295,-1.331,-1.3296,-1.3307,-1.3312,-1.3313,-1.3325,-1.3352,-1.3371,-1.3396,-1.3463,-1.3465,-1.3495,-1.3506,-1.3515,-1.3523,-1.356,-1.3574,-1.3424,-1.3424,-1.3424,0,0,-1.326,-1.3263,-1.3283,-1.3311,-1.3318,-1.3351,-1.3299,-1.3335,-1.3359,-1.3317,-1.3366,-1.3367,-1.3379,-1.3439,-1.3465,-1.3443,-1.3564,-1.3523,-1.353,-1.3534,-1.3568,-1.3582,-1.3595,-1.3428,-1.3428,-1.3427,0,0,-1.3355,-1.3359,-1.3405,-1.3413,-1.3424,-1.3416,-1.3427,-1.3432,-1.3431,-1.3478,-1.3448,-1.3476,-1.3523,-1.3533,-1.3544,-1.3641,-1.3618,-1.3649,-1.3707,-1.3743,-1.3755,-1.3765,-1.3801,-1.3814,-1.3657,-1.3657,-1.3657,0,-1.3407,-1.3454,-1.3432,-1.3471,-1.3484,-1.3446,-1.3493,-1.3502,-1.3521,-1.3531,-1.3505,-1.3564,-1.3569,-1.3631,-1.3654,-1.3664,-1.3677,-1.365,-1.3755,-1.3765,-1.3774,-1.3808,-1.3822,-1.3661,-1.3661,-1.366,-1.366,0,-1.3518,-1.3551,-1.3587,-1.3605,-1.3622,-1.3665,-1.365,-1.367,-1.3654,-1.3649,-1.3698,-1.3703,-1.3728,-1.3741,-1.3726,-1.3801,-1.3787,-1.3758,-1.3713,-1.3793,-1.3825,-1.3838,-1.3667,-1.3666,-1.3664,-1.3663,0,0,-1.3654,-1.3658,-1.3672,-1.368,-1.3689,-1.3714,-1.3754,-1.3778,-1.3797,-1.381,-1.3845,-1.3884,-1.3858,-1.3871,-1.3856,-1.3887,-1.3965,-1.3854,-1.3854,-1.3876,-1.4049,-1.4073,-1.4088,-1.3948,-1.395,-1.3952,-1.4049,0,-1.3748,-1.3818,-1.38,-1.3869,-1.39,-1.3864,-1.3899,-1.3908,-1.3904,-1.3929,-1.3924,-1.3954,-1.3916,-1.3923,-1.3952,-1.3949,-1.4,-1.3942,-1.3981,-1.3983,-1.3982,-1.4105,-1.413,-1.4221,-1.4061,-1.4063,-1.4065,0,-1.3869,-1.3887,-1.396,-1.3963,-1.3975,-1.4008,-1.4028,-1.4052,-1.4062,-1.4057,-1.407,-1.4049,-1.4089,-1.4042,-1.4098,-1.4059,-1.4073,-1.4074,-1.4077,-1.4082,-1.4031,-1.4115,-1.4249,-1.4264,-1.4084,-1.4082,-1.4081,0,-1.3964,-1.4005,-1.4055,-1.4062,-1.4067,-1.409,-1.4093,-1.41,-1.4116,-1.4133,-1.4143,-1.4165,-1.4178,-1.4196,-1.4181,-1.4148,-1.424,-1.4191,-1.4238,-1.4239,-1.4261,-1.4261,-1.4402,-1.4267,-1.4267,-1.4266,-1.4266,0,-1.4073,-1.412,-1.4097,-1.4128,-1.4179,-1.4156,-1.4207,-1.4206,-1.4212,-1.4242,-1.4211,-1.424,-1.4217,-1.4244,-1.4232,-1.4281,-1.4287,-1.4284,-1.4281,-1.4289,-1.4289,-1.43,-1.4294,-1.427,-1.4269,-1.4268,-1.4268,0,-1.4188,-1.4175,-1.4226,-1.4225,-1.4226,-1.4264,-1.4264,-1.4292,-1.4285,-1.4323,-1.4331,-1.432,-1.435,-1.4336,-1.4367,-1.4359,-1.4423,-1.441,-1.442,-1.4417,-1.4466,-1.4462,-1.4621,-1.4642,-1.4491,-1.4492,-1.4493,0,-1.4261,-1.4295,-1.4298,-1.4316,-1.4321,-1.4349,-1.4365,-1.4343,-1.4361,-1.4374,-1.4401,-1.4428,-1.4449,-1.4498,-1.4493,-1.4517,-1.4506,-1.456,-1.451,-1.4516,-1.451,-1.4509,-1.4513,-1.4571,-1.4573,-1.4574,-1.4575,0,-1.4391,-1.4382,-1.4405,-1.4426,-1.4445,-1.4461,-1.4474,-1.449,-1.4469,-1.449,-1.452,-1.4536,-1.4568,-1.4596,-1.4616,-1.4619,-1.4595,-1.4591,-1.4603,-1.4613,-1.4618,-1.4618,-1.445,-1.4588,-1.4587,-1.4586,-1.4585,-1.4585,-1.4488,-1.4518,-1.4524,-1.4551,-1.4558,-1.4571,-1.4598,-1.4593,-1.4617,-1.4642,-1.4627,-1.4662,-1.467,-1.4695,-1.4702,-1.4729,-1.4708,-1.4726,-1.4731,-1.4736,-1.4744,-1.4611,-1.4733,-1.4732,-1.4732,-1.4732,-1.4731,0,-1.4619,-1.462,-1.4645,-1.4664,-1.4685,-1.4658,-1.4671,-1.4691,-1.4722,-1.4731,-1.4752,-1.4787,-1.4813,-1.4809,-1.4833,-1.4856,-1.4846,-1.4864,-1.4863,-1.4865,-1.476,-1.4748,-1.4872,-1.4872,-1.4872,-1.4872,-1.4872,-1.4872,-1.4689,-1.4738,-1.473,-1.4782,-1.4783,-1.4818,-1.4827,-1.4839,-1.4846,-1.4886,-1.4908,-1.4904,-1.4908,-1.4932,-1.4955,-1.4954,-1.4965,-1.4988,-1.4982,-1.4886,-1.4872,-1.4859,-1.4847,-1.499,-1.499,-1.5084,-1.5085,-1.5086]},{"header":{"parameterUnit":"m.s-1","parameterCategory":1,"la1":30.2991,"la2":30.254,"lo1":-89.0895,"lo2":-89.0444,"dy":0.0017,"dx":0.0017,"nx":28,"ny":28,"refTime":"2025-01-27T09:00:00:Z","depth":0,"parameterNumber":3,"parameterNumberName":"V-component_of_WINDS"},"data":[0,0,0,0,0,0,0,0,0,0,0,0,0,0,0,0,0,0,0,0,0,0,0,0,0,0,0,0,0,0,0,0,0,0,0,0,0,0,0,0,0,0,0,0,0,0,0,0,0,0,0,0,0,0,0,0,0,0,-3.1667,-3.1668,0,-3.1701,-3.1702,-3.1702,-3.1664,-3.1662,-3.1661,-3.1659,-3.1693,-3.1695,-3.1697,0,0,0,0,0,0,0,0,0,0,0,0,0,-3.1567,-3.1569,-3.1667,-3.1668,-3.1668,-3.1701,-3.1702,-3.1702,-3.1664,-3.1662,-3.166,-3.1659,-3.1692,-3.1695,-3.1697,0,0,0,0,0,0,0,0,0,0,0,0,0,-3.1606,-3.1569,-3.1667,-3.1653,-3.1652,-3.1701,-3.1702,-3.1702,-3.1664,-3.1662,-3.166,-3.1658,-3.1691,-3.1694,-3.1698,-3.1762,0,0,-3.1708,-3.1709,0,0,0,0,0,0,0,0,-3.1604,-3.161,-3.1655,-3.1654,-3.1653,-3.1676,-3.1678,-3.1722,-3.1665,-3.166,-3.1659,-3.1657,-3.1689,-3.1692,-3.1703,-3.1763,-3.1765,-3.1708,-3.171,-3.1712,-3.1713,0,0,0,0,0,0,0,-3.1601,-3.1608,-3.1681,-3.1655,-3.1654,-3.1644,-3.1647,-3.1687,-3.1686,-3.166,-3.1657,-3.1662,-3.1688,-3.17,-3.1704,-3.1765,-3.1708,-3.1711,-3.1713,-3.1714,-3.1879,-3.1881,0,0,0,0,0,0,-3.1601,-3.1606,-3.168,-3.1682,-3.1623,-3.1648,-3.1651,-3.1671,-3.1685,-3.1686,-3.1664,-3.166,-3.1696,-3.17,-3.1705,-3.178,-3.1712,-3.1715,-3.1717,-3.1876,-3.1879,-3.1882,0,0,0,0,0,0,-3.1599,-3.1608,-3.1678,-3.1643,-3.1652,-3.1652,-3.1674,-3.1673,-3.1685,-3.1688,-3.1688,-3.1677,-3.1694,-3.17,-3.1748,-3.1781,-3.1716,-3.1719,-3.1874,-3.1877,-3.188,-3.1933,0,0,0,0,0,0,-3.1596,-3.1607,-3.1632,-3.1644,-3.1654,-3.1722,-3.1676,-3.1675,-3.1691,-3.1686,-3.17,-3.17,-3.1693,-3.1743,-3.1751,-3.1785,-3.1722,-3.1871,-3.1875,-3.1879,-3.1928,-3.1937,-3.1946,0,0,0,0,0,-3.1592,-3.1645,-3.1634,-3.1643,-3.1685,-3.1724,-3.1729,-3.172,-3.1694,-3.1719,-3.1721,-3.17,-3.1776,-3.1748,-3.1757,-3.1792,-3.1868,-3.1874,-3.1879,-3.1924,-3.1936,-3.1945,0,0,0,0,0,0,-3.1637,-3.1647,-3.1634,-3.1692,-3.1708,-3.1717,-3.1748,-3.1732,-3.1755,-3.175,-3.1736,-3.174,-3.179,-3.1796,-3.1765,-3.1854,-3.1818,-3.1825,-3.1849,-3.186,-3.1869,-3.1866,-3.1725,0,0,0,0,0,-3.1653,-3.1685,-3.1691,-3.1742,-3.175,-3.1748,-3.1765,-3.1756,-3.1771,-3.1777,-3.1782,-3.1797,-3.1824,-3.1842,-3.1868,-3.1928,-3.193,-3.1957,-3.1965,-3.1973,-3.1979,-3.2011,-3.2022,-3.1899,-3.1899,-3.1899,0,0,-3.1688,-3.1697,-3.1718,-3.1751,-3.1762,-3.1794,-3.1754,-3.1789,-3.1812,-3.1782,-3.1828,-3.1832,-3.1848,-3.1902,-3.1926,-3.1908,-3.2013,-3.1979,-3.1985,-3.1988,-3.2017,-3.2029,-3.2039,-3.1903,-3.1902,-3.1901,0,0,-3.1767,-3.1778,-3.1821,-3.1833,-3.1849,-3.1847,-3.1858,-3.187,-3.1871,-3.1917,-3.1895,-3.1922,-3.1969,-3.1981,-3.1993,-3.2075,-3.2057,-3.2084,-3.213,-3.2161,-3.2171,-3.2179,-3.2208,-3.2219,-3.209,-3.209,-3.2091,0,-3.1808,-3.1856,-3.1845,-3.1882,-3.1897,-3.1871,-3.1915,-3.1926,-3.195,-3.1961,-3.194,-3.1998,-3.2007,-3.2063,-3.2083,-3.2094,-3.2105,-3.2082,-3.2171,-3.2179,-3.2187,-3.2214,-3.2225,-3.2094,-3.2093,-3.2093,-3.2093,0,-3.1905,-3.1938,-3.1971,-3.1995,-3.2014,-3.2054,-3.2048,-3.2068,-3.2058,-3.2057,-3.2103,-3.2113,-3.2139,-3.2152,-3.2142,-3.2207,-3.2195,-3.2173,-3.2136,-3.2202,-3.2227,-3.2238,-3.2098,-3.2097,-3.2096,-3.2095,0,0,-3.2013,-3.2031,-3.2043,-3.2053,-3.2069,-3.2095,-3.2133,-3.2159,-3.2176,-3.2193,-3.2224,-3.2264,-3.2244,-3.2258,-3.2249,-3.2276,-3.234,-3.225,-3.225,-3.2266,-3.2411,-3.2427,-3.244,-3.2328,-3.233,-3.2331,-3.2409,0,-3.2093,-3.216,-3.2151,-3.2215,-3.2245,-3.222,-3.2253,-3.2266,-3.2267,-3.2292,-3.2292,-3.2321,-3.2292,-3.23,-3.2326,-3.2327,-3.2369,-3.2321,-3.2356,-3.2357,-3.2353,-3.2453,-3.2471,-3.2544,-3.2419,-3.2421,-3.2422,0,-3.2194,-3.2215,-3.2283,-3.2293,-3.2306,-3.2336,-3.2358,-3.2383,-3.2397,-3.2395,-3.241,-3.2396,-3.2433,-3.2396,-3.2446,-3.2414,-3.2427,-3.243,-3.2433,-3.2436,-3.2394,-3.2458,-3.2567,-3.2578,-3.2438,-3.2437,-3.2436,0,-3.2266,-3.2311,-3.2357,-3.2367,-3.2381,-3.2402,-3.2409,-3.2421,-3.2437,-3.2456,-3.2466,-3.249,-3.2502,-3.252,-3.2513,-3.2486,-3.2565,-3.2527,-3.2564,-3.2564,-3.2581,-3.258,-3.2694,-3.2591,-3.259,-3.259,-3.259,0,-3.2356,-3.2398,-3.239,-3.2418,-3.2464,-3.2452,-3.2498,-3.2501,-3.2512,-3.2539,-3.2519,-3.2546,-3.2534,-3.2559,-3.2553,-3.2595,-3.2601,-3.2601,-3.2599,-3.2602,-3.2603,-3.2611,-3.2606,-3.2593,-3.2592,-3.2592,-3.2591,0,-3.2444,-3.2441,-3.2489,-3.2498,-3.2501,-3.2534,-3.2542,-3.2567,-3.2566,-3.2601,-3.2609,-3.2607,-3.2635,-3.2629,-3.2661,-3.2657,-3.271,-3.2701,-3.2705,-3.2703,-3.274,-3.2737,-3.2863,-3.2879,-3.2766,-3.2767,-3.2768,0,-3.2501,-3.2533,-3.2545,-3.2563,-3.2571,-3.2599,-3.2615,-3.2605,-3.2623,-3.264,-3.2664,-3.2691,-3.2712,-3.2758,-3.2759,-3.2782,-3.2774,-3.2817,-3.2778,-3.278,-3.2774,-3.2772,-3.2775,-3.2825,-3.2826,-3.2827,-3.2828,0,-3.2603,-3.26,-3.2624,-3.2648,-3.2668,-3.2686,-3.2702,-3.2717,-3.2708,-3.2728,-3.2757,-3.2774,-3.2805,-3.2832,-3.2853,-3.2859,-3.2842,-3.284,-3.285,-3.2854,-3.2855,-3.2854,-3.2726,-3.2837,-3.2836,-3.2836,-3.2835,-3.2835,-3.2677,-3.2704,-3.2717,-3.2744,-3.2755,-3.2771,-3.2795,-3.2797,-3.2821,-3.2847,-3.2839,-3.2872,-3.2883,-3.2911,-3.2919,-3.2944,-3.2928,-3.2942,-3.2946,-3.2949,-3.2954,-3.2851,-3.2948,-3.2948,-3.2947,-3.2947,-3.2947,0,-3.2778,-3.2785,-3.281,-3.2833,-3.2855,-3.2837,-3.2853,-3.2872,-3.2902,-3.2914,-3.2935,-3.2968,-3.2994,-3.2996,-3.302,-3.3039,-3.3032,-3.3046,-3.3044,-3.3046,-3.2967,-3.2956,-3.3051,-3.3051,-3.3051,-3.3051,-3.3051,-3.3051,-3.2833,-3.2877,-3.2875,-3.2923,-3.293,-3.2962,-3.2973,-3.2986,-3.2997,-3.3034,-3.3055,-3.3057,-3.3065,-3.3089,-3.3112,-3.3111,-3.3121,-3.3138,-3.3135,-3.3062,-3.3051,-3.3041,-3.3031,-3.314,-3.314,-3.3211,-3.3212,-3.3212]}]]